UPM/SAT 1

operational
NORAD ID: 23607 Int'l Des: 1995-033 Owner: UPM Country: E
LEOCIRCULARRETROGRADE

Über UPM/SAT 1

Beschreibung wird geladen...

Live-Position

3D-Globus wird geladen...

Nächste Überflüge

Höhenverlauf

Altitude vs Time

uPlot chart will show altitude changes over time

Zweizeiliger Elementsatz

1 23607U 95033C 26062.43147576 .00001796 00000-0 21984-3 0 9991
2 23607 98.2944 29.5641 0006252 130.8811 229.2945 14.84528311650281
Epoch: 3. März 2026 • Age: 38 hours

Aktueller Status

Höhe 645.1 km
Geschwindigkeit 7.53 km/s
Subsatellitenpunkt -69.12°S, 47.7°E
Startdatum 7. Juli 1995
Alter 30.6 years
Typ other

Technische Details

Klassifizierung Payload
Masse 47.00 kg
Trockenmasse 47.00 kg
Gesamtmasse 47.00 kg
Länge 0.50 m
Durchmesser 0.50 m
Spannweite 0.50 m
Form Box
Hersteller UPM
Bus-Typ UPM
Phasenstatus In Orbit
Besitzer/Staat UPM/E

Große Konstellationen

Loading constellations...